Location: Ebendorf
(52.1827°N, 11.5706°E)
Time: 08:37:06
(UTC+00:00)

USA 215 - Pass Details

Date: 15 May 2021
Orbit: 1100 x 1107 km, 123.0° (Epoch: 22 June)

Event Time Altitude Azimuth Distance (km) Brightness Sun altitude
Exits shadow 00:31:25 12° 155° (SSE) 2,814 5.0 -16.8°
Maximum altitude 00:37:09 42° 224° (SW) 1,522 3.6 -16.5°
Drops below altitude 10° 00:43:18 10° 294° (WNW) 2,964 5.5 -16.1°
Sets 00:45:58 0° 301° (WNW) 3,925 6.3 -15.9°
